Weather History for Sterling Muni, Sterling, CO, CO

Change the Weather History Date:

Thursday, April 10, 2014

  Actual Average Record
Temperature  
Mean Temperature 52 °F -  
Max Temperature 68 °F 60 °F 68 °F (2014)
Min Temperature 35 °F 30 °F 35 °F (2014)
Degree Days  
Heating Degree Days 14    
Growing Degree Days 2 (Base 50)    
Moisture  
Dew Point 36 °F    
Average Humidity 51    
Maximum Humidity 93    
Minimum Humidity 26    
Precipitation  
Precipitation 0.00 in - - ()
Sea Level Pressure  
Sea Level Pressure 29.98 in    
Wind  
Wind Speed 10 mph (SE)    
Max Wind Speed 21 mph    
Max Gust Speed 30 mph    
Visibility 10 miles    
Events      
Averages and records for this station are not official NWS values.
T = Trace of Precipitation, MM = Missing Value Source: NWS Daily Summary

Daily Weather History Graph

Daily Weather History Graph

Search for Another Location

Airport:

Trip Planner

Search our weather history database for the weather conditions in past years. The results will help you decide how hot, cold, wet, or windy it might be!

Date:

Astronomy

Apr. 10, 2014 Rise Set
Actual Time 6:22 AM MDT 7:27 PM MDT
Civil Twilight 5:54 AM MDT 7:55 PM MDT
Nautical Twilight 5:20 AM MDT 8:28 PM MDT
Astronomical Twilight 4:45 AM MDT 9:03 PM MDT
Moon 3:12 PM MDT (4/10) 3:47 AM MDT (4/10)
Length of Visible Light 14h 01m
Length of Day
13h 05m
Waxing Gibbous, 80% of the Moon is Illuminated
Apr 10
Waxing Gibbous
Apr 15
Full
Apr 22
Last Quarter
Apr 29
New
May 6
First Quarter

Hourly Weather History & Observations

Time (MDT) Temp. Windchill Dew Point Humidity Pressure Visibility Wind Dir Wind Speed Gust Speed Precip Events Conditions
12:10 AM 68.0 °F - 32.0 °F 26% 29.83 in 10.0 mi NW 19.6 mph 25.3 mph N/A   Clear
12:30 AM 66.2 °F - 32.0 °F 28% 29.84 in 10.0 mi NNW 20.7 mph 27.6 mph N/A   Clear
12:50 AM 60.8 °F - 32.0 °F 34% 29.87 in 10.0 mi NNE 20.7 mph 28.8 mph N/A   Clear
1:10 AM 57.2 °F - 35.6 °F 44% 29.89 in 10.0 mi NE 19.6 mph 26.5 mph N/A   Clear
1:30 AM 55.4 °F - 37.4 °F 51% 29.90 in 10.0 mi NE 17.3 mph 26.5 mph N/A   Clear
1:50 AM 53.6 °F - 37.4 °F 54% 29.92 in 10.0 mi NE 17.3 mph 29.9 mph N/A   Clear
2:10 AM 51.8 °F - 37.4 °F 58% 29.93 in 10.0 mi NE 12.7 mph 20.7 mph N/A   Clear
2:30 AM 51.8 °F - 37.4 °F 58% 29.94 in 10.0 mi NNE 15.0 mph - N/A   Clear
2:50 AM 50.0 °F - 37.4 °F 62% 29.95 in 10.0 mi NE 10.4 mph - N/A   Clear
3:10 AM 48.2 °F - 37.4 °F 66% 29.95 in 10.0 mi NNE 6.9 mph - N/A   Clear
3:30 AM 46.4 °F 42.4 °F 37.4 °F 71% 29.96 in 10.0 mi North 8.1 mph - N/A   Clear
3:50 AM 42.8 °F 39.3 °F 35.6 °F 76% 29.96 in 10.0 mi NNE 5.8 mph - N/A   Clear
4:10 AM 42.8 °F 41.1 °F 37.4 °F 81% 29.96 in 10.0 mi NNE 3.5 mph - N/A   Clear
4:30 AM 41.0 °F 37.1 °F 35.6 °F 81% 29.97 in 10.0 mi North 5.8 mph - N/A   Clear
4:50 AM 41.0 °F 39.0 °F 35.6 °F 81% 29.97 in 10.0 mi NE 3.5 mph - N/A   Clear
5:10 AM 42.8 °F 39.3 °F 35.6 °F 76% 29.98 in 10.0 mi NNE 5.8 mph - N/A   Clear
5:30 AM 41.0 °F 38.0 °F 35.6 °F 81% 30.00 in 10.0 mi NNE 4.6 mph - N/A   Clear
5:50 AM 41.0 °F - 35.6 °F 81% 30.00 in 10.0 mi Calm Calm - N/A   Scattered Clouds
6:10 AM 37.4 °F - 33.8 °F 87% 30.01 in 10.0 mi Calm Calm - N/A   Scattered Clouds
6:30 AM 41.0 °F - 35.6 °F 81% 30.01 in 10.0 mi Calm Calm - N/A   Scattered Clouds
6:50 AM 35.6 °F - 33.8 °F 93% 30.03 in 10.0 mi Calm Calm - N/A   Clear
7:10 AM 39.2 °F - 35.6 °F 87% 30.04 in 10.0 mi Calm Calm - N/A   Clear
7:30 AM 42.8 °F 40.1 °F 37.4 °F 81% 30.08 in 10.0 mi West 4.6 mph - N/A   Clear
7:50 AM 46.4 °F 43.5 °F 37.4 °F 71% 30.09 in 10.0 mi WNW 5.8 mph - N/A   Clear
8:10 AM 48.2 °F - 37.4 °F 66% 30.09 in 10.0 mi NNW 3.5 mph - N/A   Scattered Clouds
8:30 AM 50.0 °F - 37.4 °F 62% 30.09 in 10.0 mi NNW 5.8 mph - N/A   Scattered Clouds
8:50 AM 51.8 °F - 35.6 °F 54% 30.08 in 10.0 mi North 3.5 mph - N/A   Scattered Clouds
9:10 AM 51.8 °F - 35.6 °F 54% 30.08 in 10.0 mi Calm Calm - N/A   Clear
9:30 AM 51.8 °F - 35.6 °F 54% 30.08 in 10.0 mi NNE 5.8 mph - N/A   Clear
9:50 AM 53.6 °F - 35.6 °F 51% 30.08 in 10.0 mi ENE 5.8 mph - N/A   Clear
10:10 AM 53.6 °F - 35.6 °F 51% 30.07 in 10.0 mi ENE 8.1 mph - N/A   Clear
10:30 AM 53.6 °F - 33.8 °F 47% 30.07 in 10.0 mi ENE 8.1 mph - N/A   Clear
10:50 AM 55.4 °F - 35.6 °F 47% 30.07 in 10.0 mi NE 8.1 mph - N/A   Clear
11:10 AM 55.4 °F - 35.6 °F 47% 30.06 in 10.0 mi Calm Calm - N/A   Clear
11:30 AM 55.4 °F - 35.6 °F 47% 30.04 in 10.0 mi East 6.9 mph - N/A   Clear
11:50 AM 57.2 °F - 35.6 °F 44% 30.03 in 10.0 mi South 3.5 mph - N/A   Clear
12:10 PM 59.0 °F - 35.6 °F 42% 30.02 in 10.0 mi ESE 5.8 mph - N/A   Clear
12:30 PM 60.8 °F - 35.6 °F 39% 30.02 in 10.0 mi East 4.6 mph - N/A   Clear
12:50 PM 60.8 °F - 35.6 °F 39% 30.01 in 10.0 mi South 3.5 mph - N/A   Clear
1:10 PM 60.8 °F - 35.6 °F 39% 30.00 in 10.0 mi South 4.6 mph - N/A   Clear
1:30 PM 62.6 °F - 35.6 °F 37% 29.99 in 10.0 mi SE 6.9 mph - N/A   Clear
1:50 PM 60.8 °F - 35.6 °F 39% 29.98 in 10.0 mi SSE 4.6 mph - N/A   Clear
2:10 PM 62.6 °F - 35.6 °F 37% 29.98 in 10.0 mi SE 5.8 mph - N/A   Clear
2:30 PM 64.4 °F - 35.6 °F 34% 29.97 in 10.0 mi South 10.4 mph - N/A   Clear
2:50 PM 64.4 °F - 35.6 °F 34% 29.96 in 10.0 mi SSW 5.8 mph - N/A   Clear
3:10 PM 66.2 °F - 35.6 °F 32% 29.95 in 10.0 mi South 6.9 mph 16.1 mph N/A   Clear
3:30 PM 68.0 °F - 35.6 °F 30% 29.95 in 10.0 mi SSE 8.1 mph 16.1 mph N/A   Clear
3:50 PM 66.2 °F - 37.4 °F 35% 29.93 in 10.0 mi South 10.4 mph - N/A   Clear
4:10 PM 68.0 °F - 37.4 °F 33% 29.93 in 10.0 mi South 8.1 mph 11.5 mph N/A   Clear
4:30 PM 68.0 °F - 37.4 °F 33% 29.93 in 10.0 mi SSW 9.2 mph - N/A   Clear
4:50 PM 66.2 °F - 37.4 °F 35% 29.92 in 10.0 mi South 10.4 mph - N/A   Clear
5:10 PM 66.2 °F - 37.4 °F 35% 29.91 in 10.0 mi South 11.5 mph - N/A   Clear
5:30 PM 64.4 °F - 37.4 °F 37% 29.92 in 10.0 mi South 12.7 mph - N/A   Clear
5:50 PM 64.4 °F - 37.4 °F 37% 29.91 in 10.0 mi South 11.5 mph - N/A   Clear
6:10 PM 64.4 °F - 37.4 °F 37% 29.91 in 10.0 mi South 12.7 mph - N/A   Clear
6:30 PM 66.2 °F - 37.4 °F 35% 29.90 in 10.0 mi South 11.5 mph - N/A   Clear
6:50 PM 64.4 °F - 37.4 °F 37% 29.92 in 10.0 mi South 8.1 mph - N/A   Scattered Clouds
7:10 PM 60.8 °F - 37.4 °F 42% 29.92 in 10.0 mi South 6.9 mph - N/A   Scattered Clouds
7:30 PM 60.8 °F - 37.4 °F 42% 29.93 in 10.0 mi Calm Calm - N/A   Scattered Clouds
7:50 PM 60.8 °F - 35.6 °F 39% 29.93 in 10.0 mi SSE 8.1 mph - N/A   Scattered Clouds
8:10 PM 62.6 °F - 35.6 °F 37% 29.95 in 10.0 mi Calm Calm - N/A   Scattered Clouds
8:30 PM 62.6 °F - 35.6 °F 37% 29.94 in 10.0 mi West 12.7 mph - N/A   Overcast
8:50 PM 62.6 °F - 37.4 °F 39% 29.95 in 10.0 mi SSW 10.4 mph - N/A   Overcast
9:10 PM 60.8 °F - 37.4 °F 42% 29.96 in 10.0 mi SE 3.5 mph - N/A   Mostly Cloudy
9:30 PM 59.0 °F - 37.4 °F 45% 29.96 in 10.0 mi SSE 5.8 mph - N/A   Scattered Clouds
9:50 PM 57.2 °F - 37.4 °F 48% 29.96 in 10.0 mi South 6.9 mph - N/A   Scattered Clouds
10:10 PM 59.0 °F - 37.4 °F 45% 29.97 in 10.0 mi SSE 3.5 mph - N/A   Scattered Clouds
10:30 PM 55.4 °F - 37.4 °F 51% 29.97 in 10.0 mi South 8.1 mph - N/A   Scattered Clouds
10:50 PM 53.6 °F - 37.4 °F 54% 29.97 in 10.0 mi South 8.1 mph - N/A   Scattered Clouds
11:10 PM 53.6 °F - 37.4 °F 54% 29.96 in 10.0 mi South 6.9 mph - N/A   Clear
11:30 PM 51.8 °F - 37.4 °F 58% 29.96 in 10.0 mi SW 6.9 mph - N/A   Clear
11:50 PM 48.2 °F - 37.4 °F 66% 29.96 in 10.0 mi SW 6.9 mph - N/A   Clear